GFSSW_500_spd_003.txt.gz
Wind_Speed
15 20 26 31 29 25 21 19 19 18 16 18 20 24 22 21 22 21 20 21 20 18 16 16 15 10 10 10 9 6 6 3 4 2 8 9 11 12 13 15 17 19 22 25 25
18 27 31 32 28 24 23 23 25 23 20 20 20 21 23 22 27 30 26 24 25 26 22 20 18 16 14 10 6 9 5 4 6 7 9 9 11 11 12 14 18 20 22 24 25
27 31 30 31 24 25 25 25 24 24 25 23 18 21 22 23 30 31 32 32 31 31 30 31 29 26 21 16 12 9 5 5 4 5 6 8 9 10 12 16 18 20 21 21 20
30 30 33 28 26 26 24 23 23 21 22 23 20 18 21 25 28 26 28 29 28 30 30 32 31 30 27 23 20 18 14 12 13 14 15 14 13 12 10 8 10 12 13 15 17
32 32 30 28 27 25 22 22 23 21 19 20 21 18 18 20 21 24 23 23 23 23 24 25 25 23 21 21 18 16 16 14 13 12 12 11 11 11 11 12 14 14 13 12 13
32 32 29 28 25 21 17 17 20 20 18 21 20 19 17 18 13 17 18 20 20 20 19 19 18 18 16 15 14 11 11 13 13 11 10 11 9 9 10 10 10 11 11 10 9
31 29 26 24 21 17 13 13 14 16 17 17 18 18 18 18 14 13 13 13 14 15 16 14 14 13 12 11 9 9 9 10 9 8 7 7 7 9 10 10 12 14 14 13 13
28 24 23 19 16 13 11 10 9 10 12 15 15 14 17 15 13 14 13 13 13 13 14 14 14 13 12 11 10 10 7 12 10 10 10 11 9 13 14 14 15 16 18 19 19
24 23 21 19 17 12 9 7 5 5 6 10 13 10 12 13 11 10 11 12 13 13 14 14 12 14 13 14 13 18 11 11 12 11 13 11 15 13 9 13 16 15 16 16 17
21 20 20 20 16 13 10 7 4 2 1 3 10 10 11 9 10 9 9 9 10 11 12 13 13 15 13 12 8 11 10 9 8 8 12 11 14 15 16 17 19 21 20 19 19
22 21 20 20 18 15 13 11 7 5 4 3 6 9 11 9 9 9 9 8 9 10 11 11 10 9 10 11 13 12 11 9 10 8 9 10 13 14 18 20 19 18 19 19 19
25 25 23 22 21 19 15 15 12 9 9 8 9 10 12 11 9 9 9 8 8 9 10 10 9 10 9 11 12 9 12 13 12 10 8 11 13 12 18 18 13 14 16 17 19
26 27 27 26 24 22 20 18 17 15 13 13 15 15 14 13 10 9 9 8 8 8 9 9 10 10 11 10 8 7 7 8 8 11 11 12 15 18 19 15 13 15 17 19 21
25 25 25 26 25 25 24 23 22 20 20 20 20 17 14 12 11 10 9 9 9 10 12 11 11 12 10 9 8 9 8 9 10 8 8 9 9 12 14 12 13 17 20 22 24
20 19 22 23 24 24 24 23 22 22 23 17 14 12 13 13 12 12 11 10 11 13 14 14 14 14 13 12 10 9 12 11 12 9 9 10 13 13 17 21 21 20 21 21 24
8 14 18 18 20 19 20 21 20 18 15 13 14 14 16 16 14 13 13 14 15 16 18 19 18 16 16 15 14 13 12 15 17 14 14 14 16 14 19 24 26 29 29 28 30
10 11 14 16 17 17 17 16 17 18 18 17 17 17 19 19 19 17 16 17 18 20 20 22 18 18 19 18 16 19 21 19 19 22 21 22 20 18 27 28 33 36 36 37 39
9 12 14 17 19 19 20 21 22 22 21 21 21 21 21 22 23 22 21 19 19 22 26 22 23 19 19 20 21 22 25 27 29 27 26 27 29 30 35 41 46 45 45 44 46
11 11 10 13 17 20 23 24 25 26 25 23 21 22 23 24 23 25 23 22 22 23 26 22 20 20 20 20 23 25 25 28 32 36 36 28 32 34 37 47 47 50 52 52 53
11 12 10 10 11 12 14 17 19 20 20 19 18 18 20 21 22 22 22 21 23 22 21 20 18 18 20 21 22 24 28 31 36 39 44 42 38 35 42 40 49 53 57 59 59
12 13 12 10 10 12 14 15 15 15 14 13 13 12 13 15 18 21 21 20 19 19 20 19 19 21 24 25 25 30 28 30 38 39 44 49 48 39 40 43 47 53 56 60 63
12 14 15 15 14 14 14 14 14 14 13 12 12 13 13 14 16 19 18 16 16 18 21 21 23 23 26 29 30 29 30 36 39 43 44 49 52 43 48 50 52 56 61 63 66
12 13 15 17 18 17 18 17 17 17 16 16 17 17 17 17 18 17 17 19 21 22 23 25 27 28 29 35 36 31 31 33 42 46 42 51 52 43 45 48 53 58 60 63 64
15 15 14 16 19 20 20 21 20 21 21 21 22 22 23 23 23 23 24 25 29 31 33 34 34 36 34 37 40 41 34 29 40 47 52 52 56 47 50 56 58 61 62 62 64
17 17 17 18 18 20 23 23 23 24 25 26 25 25 24 24 26 28 30 32 34 37 40 41 38 42 38 42 47 46 38 31 39 43 50 54 55 53 56 56 59 62 59 63 62
21 20 20 20 21 22 23 24 27 28 27 27 28 28 28 29 28 28 30 33 33 37 39 44 44 46 43 42 48 50 40 41 48 48 51 54 56 54 55 61 62 65 63 65 65
25 25 24 23 24 24 24 26 28 29 30 32 33 34 34 33 34 33 34 35 35 37 40 43 46 51 53 47 53 53 56 52 55 57 59 62 62 62 64 64 67 66 66 66 69

GFSSW_500_spd_006.txt.gz
Wind_Speed
20 20 24 30 27 25 20 16 16 17 20 19 23 24 24 24 20 20 21 20 19 17 15 17 15 14 15 13 16 23 11 5 5 4 11 8 10 9 12 15 13 12 18 22 23
19 30 33 31 28 24 24 25 24 22 21 20 23 24 23 26 27 30 28 28 27 24 18 21 23 19 16 11 8 19 9 11 6 7 10 12 8 12 12 16 18 13 18 20 23
31 36 32 29 28 30 28 28 27 25 22 20 20 22 22 23 30 29 28 28 28 29 28 27 29 26 22 17 16 12 10 5 4 6 6 6 8 8 9 11 11 12 7 10 10
39 35 31 31 30 27 26 25 25 24 22 19 19 20 20 20 25 23 22 23 23 24 22 26 30 30 26 23 22 23 18 20 18 15 13 13 12 12 11 13 14 15 13 13 13
37 32 30 30 27 26 26 24 24 23 21 19 15 14 16 19 20 18 19 20 19 19 22 21 21 20 16 16 17 14 13 11 9 9 8 7 6 7 8 9 11 12 13 13 12
36 31 30 28 26 24 25 24 22 22 20 17 15 13 12 18 11 13 14 16 16 18 17 16 16 15 14 13 12 10 8 7 5 5 6 7 8 10 9 10 11 11 11 12 13
32 29 28 26 21 18 18 20 21 19 18 17 14 12 15 16 12 13 13 14 15 15 14 13 12 10 10 10 10 9 5 5 6 8 9 10 8 7 12 11 12 14 14 15 16
30 28 25 22 18 17 15 14 15 16 16 15 14 12 15 12 11 10 10 11 11 11 10 10 11 10 11 10 7 9 11 10 15 13 11 10 12 13 15 13 11 11 12 14 17
29 27 24 19 15 12 10 9 8 10 12 13 13 11 11 9 8 7 7 8 8 7 8 9 7 8 6 10 13 14 13 11 12 13 12 12 12 12 14 17 18 15 15 14 12
26 24 20 16 12 9 8 7 5 4 6 8 10 9 10 7 7 6 5 4 5 6 6 5 7 6 15 10 9 9 10 12 11 12 14 12 10 9 12 17 18 18 18 15 15
24 23 20 18 15 12 10 8 6 2 1 1 5 8 11 9 8 7 6 4 3 4 6 6 7 9 8 7 5 5 5 6 8 10 13 14 13 11 13 15 14 12 16 16 18
22 21 20 20 19 17 14 13 11 6 6 6 6 10 12 13 11 10 8 7 5 6 8 7 6 7 7 8 8 7 5 5 9 11 10 15 16 13 15 16 15 14 16 18 19
23 22 21 20 19 19 17 15 15 13 11 10 11 15 16 15 12 12 11 8 8 6 8 11 10 8 10 10 10 11 8 8 10 10 13 12 19 21 17 18 17 18 21 21 22
21 24 23 23 22 21 20 19 18 17 18 16 18 21 19 15 13 12 11 10 9 10 11 12 12 12 10 11 11 14 13 12 12 15 14 15 11 18 26 21 20 22 23 26 28
21 23 23 25 25 24 24 24 23 21 23 21 19 17 14 13 13 13 13 11 11 13 15 14 16 16 13 12 14 14 16 16 15 16 16 17 17 16 24 28 28 30 30 31 35
9 15 21 21 23 23 23 23 23 23 23 21 15 14 15 17 18 15 15 14 15 16 18 20 19 19 15 15 14 16 16 20 20 19 17 18 17 12 16 30 34 36 40 43 41
8 8 10 17 17 18 18 18 17 18 18 15 15 17 18 18 20 21 20 20 19 20 20 23 21 16 19 17 18 16 20 20 21 24 21 29 29 28 20 30 33 40 45 46 45
7 7 10 11 12 14 16 17 19 18 18 20 20 22 23 23 22 24 24 25 22 24 24 22 29 22 16 18 19 19 24 25 27 28 27 23 31 25 31 35 44 50 49 57 56
7 6 8 9 13 15 18 21 21 24 24 24 24 24 24 24 26 26 25 26 25 25 26 24 24 22 16 20 22 24 25 29 33 34 38 36 36 31 26 31 43 45 53 60 60
8 7 7 8 9 11 14 17 17 20 22 22 21 19 21 21 23 22 24 21 24 24 25 22 18 20 24 23 24 25 28 32 37 40 45 42 40 33 35 35 37 40 45 55 59
10 9 9 9 10 9 11 12 13 13 13 14 14 14 16 16 16 17 18 17 22 22 20 18 20 22 25 27 28 31 31 34 38 40 46 49 44 40 35 40 44 49 54 56 61
12 10 10 12 13 12 10 12 11 11 12 12 12 13 16 16 17 17 18 18 19 18 19 18 21 23 26 30 34 33 32 34 42 45 46 47 48 35 42 47 53 54 58 60 61
13 12 11 12 15 15 14 14 15 14 15 15 16 17 17 18 19 18 20 18 21 22 24 26 30 32 30 39 41 38 34 35 41 48 51 53 52 43 46 48 52 57 59 59 61
15 14 14 14 14 15 16 17 17 18 19 20 21 22 22 22 21 23 23 24 25 29 31 34 31 35 35 35 43 44 39 35 38 47 51 53 56 53 51 56 59 60 61 60 60
17 16 16 17 16 17 17 19 20 21 22 23 24 25 24 24 25 27 27 29 29 32 33 36 33 37 35 38 44 47 45 41 40 41 50 53 54 53 56 59 64 62 63 64 65
19 19 18 18 20 20 20 21 23 22 25 27 29 31 30 32 32 31 31 33 32 35 39 43 41 43 42 38 47 52 46 49 52 52 53 55 57 54 58 63 66 62 64 65 63
24 22 20 20 21 23 24 25 25 26 27 29 30 31 32 31 33 35 35 34 35 37 38 42 44 48 53 49 51 51 56 51 56 57 55 57 58 62 66 66 65 65 64 64 66

GFSSW_500_spd_012.txt.gz
Wind_Speed
20 20 24 27 27 28 29 26 23 21 19 18 21 21 19 20 23 22 19 15 12 13 12 14 18 18 15 13 6 2 7 13 10 6 5 3 0 6 10 7 7 8 7 7 8
28 28 29 30 36 35 33 27 26 26 27 28 27 26 25 24 24 26 27 21 18 15 13 15 12 9 10 8 6 10 12 12 11 15 12 18 14 12 15 14 14 15 13 13 13
25 28 34 38 37 35 31 27 26 28 26 24 24 24 23 23 23 23 25 26 26 23 20 18 17 19 20 18 14 19 21 16 14 13 16 16 12 13 13 12 13 12 12 13 14
30 38 39 39 37 34 31 28 27 27 24 24 21 20 21 20 22 20 22 22 24 22 22 21 21 20 21 20 19 16 14 14 11 10 12 11 11 10 10 11 11 10 10 11 11
39 40 40 38 35 32 31 28 27 24 22 20 18 17 16 18 16 19 20 17 18 18 17 16 17 17 17 16 14 10 10 9 10 9 8 8 8 10 11 10 11 12 11 11 11
40 40 38 35 33 31 29 27 25 22 19 18 16 14 12 15 12 12 13 14 10 12 14 14 14 14 14 13 13 11 8 7 6 4 5 7 8 7 10 11 10 11 13 11 12
40 38 36 34 33 30 29 27 25 21 17 15 13 10 12 14 13 13 12 9 10 9 10 10 13 9 8 9 11 13 7 5 5 4 4 6 5 4 4 7 10 10 11 13 14
37 35 34 34 32 29 26 24 22 21 18 15 12 9 8 9 9 8 7 5 7 6 6 6 8 8 6 5 6 4 5 5 5 4 3 5 5 5 3 4 7 7 9 11 14
36 34 33 32 31 28 26 23 20 18 16 14 13 11 6 6 5 3 3 3 3 4 3 5 7 5 7 2 2 1 6 7 7 6 3 3 5 8 9 9 11 9 6 6 6
34 32 30 27 25 24 22 20 19 17 16 14 12 11 8 6 5 3 3 4 6 6 8 7 2 3 5 4 3 6 5 5 6 5 6 4 6 7 10 12 11 13 11 11 13
32 27 25 24 21 18 15 16 11 13 11 9 7 7 8 8 6 6 5 6 4 4 4 6 3 3 4 8 7 8 9 8 9 7 7 10 11 9 13 13 15 15 14 16 19
29 26 23 20 15 12 10 9 6 4 5 3 2 3 7 10 10 8 6 6 4 6 3 5 8 9 9 9 11 8 11 12 14 16 12 14 16 17 14 13 18 21 23 26 25
26 25 21 18 16 13 10 8 7 7 7 4 4 7 9 12 13 9 8 6 6 8 5 6 7 8 9 10 11 12 11 13 13 15 21 19 18 17 17 18 19 19 19 21 22
24 22 20 19 17 15 14 13 12 11 12 11 12 12 12 13 15 10 7 9 9 9 7 9 11 12 14 13 11 14 15 14 13 14 18 18 18 19 20 21 23 26 24 22 22
25 23 21 20 19 18 17 17 16 15 17 17 17 16 16 14 11 11 10 11 11 11 12 12 12 14 17 17 15 14 16 17 16 18 18 18 16 20 26 28 30 33 34 32 33
25 24 23 22 21 21 20 20 19 19 20 20 19 18 16 14 12 11 13 13 15 17 16 15 13 15 18 20 17 16 14 18 18 21 19 19 17 24 29 33 39 42 40 44 45
20 19 19 19 20 20 20 20 20 20 19 18 18 16 14 12 15 14 15 17 18 17 17 18 16 17 18 20 17 14 14 17 20 19 21 25 21 28 30 35 36 36 42 46 44
14 13 12 12 14 17 18 17 16 13 12 13 13 13 14 15 19 22 20 18 18 19 19 19 18 18 18 19 14 16 16 17 19 23 20 21 20 23 29 30 33 39 44 43 44
13 13 11 11 11 12 12 11 10 11 13 14 16 17 19 20 21 17 15 16 17 17 16 16 18 17 19 17 16 17 19 22 25 30 31 26 19 16 28 23 35 37 43 44 47
12 12 11 9 11 10 9 8 11 11 11 10 12 11 8 9 10 10 10 12 11 11 12 13 14 17 17 17 18 21 22 31 34 35 35 33 28 26 24 29 31 36 44 45 45
11 12 11 10 11 9 9 10 9 9 8 9 11 11 10 9 9 9 10 11 11 11 12 12 13 17 18 21 24 26 29 33 36 36 39 44 37 31 34 42 45 45 43 44 43
12 12 13 12 12 12 10 10 8 9 9 9 10 9 10 12 12 14 13 14 15 15 16 16 16 20 23 28 30 27 25 30 38 40 39 44 46 40 43 43 47 44 40 41 45
12 13 14 14 13 12 12 12 12 12 11 12 12 13 14 15 17 17 18 18 19 21 22 22 21 21 27 30 33 29 25 33 40 43 45 47 47 41 45 48 49 48 48 50 49
13 13 14 14 13 12 12 11 12 12 14 14 14 15 17 17 18 20 21 21 22 23 24 25 26 26 26 31 36 28 25 31 39 42 47 42 49 40 46 45 48 49 50 48 45
14 13 13 13 12 12 11 11 9 9 10 11 11 13 15 18 19 21 23 25 26 26 27 27 26 26 26 30 34 30 34 36 38 36 40 37 39 43 46 47 49 49 50 54 54
16 14 14 12 12 14 14 12 10 11 12 13 15 18 19 20 21 24 26 27 27 28 30 31 31 34 27 36 40 35 35 37 37 37 40 42 44 45 45 47 50 50 54 54 57
21 18 17 16 15 17 16 16 15 17 16 16 19 22 27 29 28 28 31 31 31 31 30 33 37 40 39 38 40 29 33 33 36 36 42 43 41 42 46 50 51 52 54 56 54

GFSSW_500_spd_015.txt.gz
Wind_Speed
22 18 17 19 26 27 24 26 23 18 15 14 15 15 16 16 14 13 12 10 8 8 6 5 3 3 8 12 7 1 4 11 12 8 4 0 4 10 14 14 12 15 14 13 16
17 19 20 23 28 31 31 27 25 22 23 23 23 23 24 23 23 21 21 17 13 12 12 13 15 12 12 8 5 11 18 18 17 17 17 14 14 12 12 11 10 12 10 11 11
20 21 24 29 31 36 33 30 29 32 30 29 25 25 22 24 23 24 26 24 19 17 15 14 15 14 15 14 17 18 20 20 16 15 13 11 10 10 9 8 10 11 11 11 12
23 24 27 34 39 37 35 34 32 32 29 27 24 22 21 20 22 20 20 22 23 24 22 22 21 21 21 21 18 17 18 16 14 11 9 8 8 9 8 6 6 7 7 9 9
23 26 33 38 38 37 34 32 31 28 25 22 20 19 19 17 15 16 17 17 19 19 19 16 17 17 16 17 15 12 12 9 9 7 8 7 7 7 6 7 7 6 7 8 9
30 35 37 38 36 34 32 29 26 24 21 18 16 15 14 16 12 13 13 13 13 12 12 10 11 10 10 11 11 10 9 8 7 4 5 2 4 7 8 9 9 9 9 7 6
37 39 38 38 35 33 30 26 22 20 18 15 12 10 11 13 12 11 12 11 11 9 6 5 9 8 8 7 8 4 4 6 4 2 1 2 1 1 4 7 10 12 11 9 8
39 37 36 35 32 29 27 24 20 17 14 13 11 9 7 7 8 8 8 6 5 6 5 4 5 6 5 6 6 4 1 1 5 4 4 3 3 3 3 5 7 9 12 12 11
35 33 32 31 29 27 26 24 21 18 16 14 13 10 7 5 5 5 4 4 3 4 5 6 6 4 5 5 3 1 4 5 5 2 3 5 5 7 6 6 7 8 10 13 13
33 32 31 29 27 25 22 20 19 18 17 14 13 11 8 6 4 5 4 5 4 4 5 4 7 7 7 6 5 4 3 1 2 4 3 4 5 7 8 10 10 11 14 16 16
34 34 31 29 27 24 23 22 21 19 16 13 12 9 7 7 5 4 4 5 4 2 2 3 4 5 6 7 5 5 6 8 10 5 8 10 11 11 13 15 15 15 17 19 19
33 31 29 26 24 22 21 15 14 11 10 7 5 3 4 6 6 5 3 4 5 4 3 6 6 5 6 9 9 7 8 9 12 14 11 14 17 16 17 16 19 20 21 20 22
29 26 24 22 19 17 15 13 12 10 7 4 3 3 6 7 9 8 6 4 5 4 6 7 7 8 10 9 11 11 10 11 10 15 13 13 16 19 20 22 22 22 25 27 27
28 23 21 20 18 16 14 11 10 9 9 9 10 10 10 11 12 9 6 6 6 6 8 9 10 12 12 12 11 14 14 14 14 15 12 14 20 21 20 22 24 27 27 27 27
27 25 24 22 20 19 17 16 15 15 15 16 16 14 15 16 14 11 8 9 10 11 12 12 14 14 16 17 13 14 17 16 16 15 16 17 21 22 24 27 28 29 32 34 35
26 25 24 22 21 21 21 20 19 19 21 19 18 19 19 17 15 12 10 11 13 14 15 16 17 17 20 22 16 15 15 14 14 16 18 19 21 24 27 30 32 34 35 39 39
26 26 25 24 23 23 23 22 22 23 21 20 20 20 19 17 13 11 13 16 18 19 19 17 18 19 22 24 22 20 15 16 17 16 18 21 25 28 31 35 36 38 40 43 46
29 28 26 24 23 23 24 23 22 20 20 20 18 15 12 13 13 16 18 21 20 19 20 20 20 21 23 23 21 20 17 17 19 20 20 25 28 29 30 36 40 43 45 45 45
24 22 20 18 18 17 17 17 16 17 16 15 14 15 15 19 18 19 16 13 13 15 16 17 17 19 20 21 21 20 19 21 24 27 31 29 21 22 31 37 41 45 46 47 50
22 21 18 16 15 14 13 13 13 12 12 13 13 11 12 11 7 8 10 9 9 11 11 12 13 16 15 17 18 20 24 27 32 35 37 35 24 25 31 38 40 42 45 44 43
15 16 16 13 11 13 12 13 10 10 10 10 10 9 10 10 9 8 10 10 11 11 12 12 14 17 17 18 19 23 28 31 34 36 39 43 35 36 37 43 41 37 36 37 39
11 12 13 14 14 13 13 12 12 8 9 9 8 8 9 10 11 12 14 15 16 16 16 16 17 20 22 22 21 25 28 32 36 38 38 42 39 38 41 39 36 38 41 43 45
10 10 12 14 14 14 14 13 12 11 11 10 9 9 11 13 14 15 17 19 21 22 22 22 22 24 25 26 22 24 29 34 39 40 41 43 37 38 41 40 43 44 44 44 47
12 10 11 13 13 13 13 13 12 12 12 11 11 11 12 13 14 16 17 19 21 22 23 23 23 26 28 29 25 22 26 33 39 41 44 36 41 37 40 41 42 43 46 53 54
13 11 11 11 12 12 12 12 12 11 11 9 9 9 11 13 16 18 21 21 22 24 26 26 25 26 27 30 30 26 30 32 36 36 39 36 36 40 43 44 46 48 53 54 55
17 13 11 11 12 12 12 12 12 12 11 10 11 12 14 16 20 25 27 29 31 32 32 31 31 31 27 35 37 29 31 35 34 32 38 40 42 46 46 48 48 50 52 54 58
22 19 16 14 15 14 14 14 15 15 15 15 17 17 19 25 25 25 30 33 34 33 34 33 36 38 32 33 33 26 30 33 34 37 42 44 45 44 43 46 50 51 56 56 57

GFSSW_500_spd_018.txt.gz
Wind_Speed
17 24 22 23 26 27 22 23 21 19 14 10 8 8 7 6 6 4 4 5 7 9 8 10 9 7 15 13 8 5 3 7 8 7 5 14 15 15 12 12 11 13 12 11 11
14 21 20 19 20 24 26 27 22 17 17 19 18 17 15 15 16 15 16 15 17 18 18 18 16 15 11 9 5 5 9 8 12 14 14 14 11 11 11 11 11 11 10 8 7
20 19 16 19 24 27 27 24 25 26 26 25 22 22 22 21 22 22 22 19 18 20 20 19 17 17 14 16 14 15 16 19 18 15 12 12 11 9 8 9 9 8 8 7 6
18 19 19 20 22 24 29 31 32 31 29 25 23 21 20 21 23 23 21 22 22 22 21 18 18 22 21 21 19 17 16 14 12 12 12 10 10 9 6 5 6 7 7 7 6
16 19 20 22 23 31 34 35 33 29 27 24 22 21 19 19 17 19 19 19 19 20 20 20 19 18 17 16 15 14 14 13 11 10 9 9 7 7 4 4 5 5 6 7 7
15 16 20 25 33 38 38 35 31 27 24 22 19 17 18 18 15 15 14 14 14 13 13 14 13 10 8 8 7 7 8 6 7 7 5 5 3 3 6 6 6 5 6 6 8
17 21 30 35 38 38 35 31 27 23 21 18 15 14 15 14 13 12 11 11 10 10 10 9 8 5 6 7 7 5 7 3 2 3 3 3 5 5 4 4 6 8 8 8 10
30 34 37 38 38 35 31 27 23 19 16 14 13 11 11 10 10 10 10 9 9 7 8 6 4 4 4 4 2 1 1 1 2 3 5 5 6 2 3 7 8 8 9 10 13
35 37 38 36 34 31 27 24 20 17 15 13 12 9 9 9 8 8 7 7 6 4 4 4 4 3 3 4 2 3 4 5 7 8 7 6 7 2 6 10 10 11 12 12 14
36 35 34 32 29 27 24 21 19 17 15 14 12 9 8 8 7 6 5 5 4 2 1 1 3 4 5 5 4 6 8 8 7 7 5 3 6 8 11 13 15 15 16 17 19
34 32 30 28 26 25 23 20 18 17 15 13 12 11 9 7 5 3 2 1 2 1 3 2 3 3 5 6 6 7 9 8 7 4 7 8 11 13 14 17 18 19 21 22 24
32 30 29 26 24 22 21 20 17 15 14 12 9 6 3 3 4 4 2 3 2 3 5 4 3 4 5 6 8 7 9 9 10 7 7 13 14 14 17 19 20 22 23 23 24
30 28 27 26 25 23 20 18 15 12 9 7 5 3 3 4 5 9 6 5 4 4 7 7 7 7 7 8 11 10 10 11 11 14 12 15 17 18 17 18 18 20 23 25 27
29 27 26 25 21 20 17 15 14 11 9 8 8 9 9 8 9 9 7 6 6 7 7 9 10 11 12 12 12 14 16 15 16 15 14 17 21 20 20 21 25 27 30 30 31
27 26 25 22 20 18 16 14 13 13 13 13 14 13 14 13 14 13 10 9 9 9 12 13 14 15 16 16 14 16 18 19 18 15 15 15 17 20 22 25 29 33 34 34 35
27 24 22 21 19 19 18 17 16 18 20 17 16 17 16 17 16 14 14 13 13 12 13 16 16 19 21 20 17 18 19 20 18 16 17 17 19 20 26 33 37 37 38 39 39
29 26 24 22 22 22 21 21 21 23 21 20 20 20 19 17 15 15 14 15 16 18 19 19 19 21 22 23 22 21 21 21 19 18 18 19 23 26 32 37 38 38 39 40 42
29 27 26 24 24 23 23 23 24 24 23 22 22 20 16 14 13 13 15 17 20 22 20 19 19 21 22 22 22 22 20 21 22 22 22 25 28 35 35 37 39 41 42 43 45
29 26 26 26 25 25 25 23 22 23 22 22 18 15 15 15 15 17 18 18 14 13 14 14 15 17 18 19 20 19 20 20 23 26 27 29 27 35 34 39 40 40 41 42 44
28 28 26 24 23 21 19 19 19 18 15 14 14 14 13 10 7 7 7 10 11 11 12 13 14 13 12 15 17 19 21 24 27 31 33 33 24 25 37 39 38 35 37 38 39
25 22 20 19 17 17 17 16 13 11 11 11 9 8 9 10 8 9 10 12 13 13 14 16 18 17 17 20 22 23 25 28 30 31 34 37 28 29 31 32 33 34 35 37 41
20 19 19 18 17 15 14 12 10 10 8 8 8 8 7 8 8 10 12 14 15 16 19 20 21 23 22 23 24 25 27 30 33 35 33 35 32 34 37 33 33 35 40 43 42
17 14 15 16 16 15 13 11 10 10 9 8 9 9 9 9 10 12 13 16 18 19 20 20 21 22 22 24 25 26 27 30 34 36 35 38 34 34 37 39 40 44 46 46 46
16 14 13 13 14 13 12 12 12 10 11 11 12 12 10 9 9 10 13 16 19 22 23 24 25 27 28 26 26 26 29 32 37 40 42 35 39 33 38 39 43 45 47 51 54
16 14 13 12 12 12 12 12 12 11 12 11 11 10 10 9 10 12 16 19 21 24 27 28 29 32 33 32 30 28 30 34 40 39 41 38 38 41 42 46 48 49 52 56 60
17 15 13 12 11 11 11 12 12 12 12 12 11 12 13 14 14 19 23 27 31 33 35 35 34 33 32 35 35 28 31 35 34 34 37 40 42 42 44 47 49 52 57 58 62
21 19 16 14 13 12 13 13 13 13 12 13 14 16 18 20 22 24 29 32 34 37 40 41 40 38 30 35 32 25 28 34 35 34 37 41 43 44 45 50 51 54 57 61 65

GFSSW_500_spd_021.txt.gz
Wind_Speed
17 25 23 20 21 24 25 26 19 20 16 14 12 10 9 8 8 9 8 10 10 11 14 17 17 16 16 13 10 7 4 5 8 7 9 16 16 13 12 11 11 10 8 7 7
13 18 26 19 23 27 27 20 19 17 15 12 13 13 13 13 12 12 15 18 21 21 18 18 17 15 13 13 6 4 6 8 9 13 17 13 12 13 13 11 11 10 8 7 7
11 13 24 21 20 21 18 19 17 19 20 21 20 21 20 18 18 18 18 21 23 22 22 20 18 15 12 12 9 9 11 12 17 15 14 12 12 11 11 9 9 7 6 5 6
13 17 16 18 16 18 20 20 24 29 29 27 26 25 22 21 21 21 19 20 21 21 20 20 18 18 17 18 17 18 17 17 15 13 11 10 8 8 8 7 6 4 3 1 3
15 16 16 15 17 20 22 29 34 33 30 28 28 25 23 24 21 18 20 22 21 19 20 21 21 20 18 16 15 15 13 12 11 11 9 7 5 2 3 3 4 3 1 2 6
15 16 14 18 21 22 32 37 36 33 29 26 23 20 21 22 18 18 18 19 19 17 16 15 13 12 10 10 10 10 10 11 12 13 11 10 6 3 1 2 2 1 1 5 8
11 16 17 18 26 36 41 39 35 30 26 23 20 19 20 18 16 16 16 15 15 14 12 11 9 9 8 7 10 11 9 10 11 11 8 3 2 1 5 8 8 8 8 8 8
12 16 20 32 42 42 39 35 30 26 23 21 20 19 18 16 15 14 13 13 12 10 9 8 7 6 6 5 4 3 2 2 1 1 2 3 4 2 8 11 11 12 13 14 14
22 28 38 44 41 38 34 30 28 24 22 20 19 17 16 14 13 12 11 9 9 8 7 6 6 5 3 3 2 1 3 5 6 6 7 7 4 5 9 11 12 14 16 17 18
34 38 42 39 36 33 30 28 25 23 21 19 16 14 14 13 11 10 8 7 6 4 4 4 4 5 4 3 3 3 4 6 7 9 7 7 7 6 10 12 14 16 18 19 18
39 39 38 36 33 29 26 25 23 21 19 17 16 14 12 11 9 7 5 4 3 1 0 0 1 2 2 3 3 4 7 7 7 8 11 10 10 12 14 14 15 15 15 17 19
37 36 33 30 29 28 27 24 22 20 18 16 13 11 8 7 6 4 0 1 2 3 3 2 2 1 3 4 4 5 7 7 8 6 9 11 11 12 13 15 18 19 19 19 21
35 33 32 31 29 27 24 22 20 17 13 10 7 5 2 2 2 5 3 5 6 5 4 4 4 5 6 8 9 9 9 9 11 13 13 15 15 14 16 18 21 21 22 23 25
34 33 31 29 26 24 21 19 16 13 9 6 4 3 4 5 7 7 8 5 7 7 7 6 7 9 10 11 12 13 14 13 14 15 16 17 17 17 18 19 19 22 25 27 30
32 30 28 26 24 22 19 15 12 9 9 8 7 8 11 12 12 13 11 9 9 9 11 12 13 14 14 14 15 16 17 18 18 17 18 17 18 18 18 19 22 27 30 31 31
28 27 26 23 21 18 14 12 11 12 13 9 11 12 14 14 15 16 14 13 12 12 13 14 15 16 17 16 18 19 20 21 20 18 18 19 20 20 22 25 30 33 34 32 34
27 26 24 22 20 17 15 15 16 18 15 16 16 17 17 17 17 15 14 13 13 14 16 19 20 20 20 20 20 20 19 22 23 21 19 20 22 24 26 31 35 37 37 37 39
28 25 23 22 20 18 17 18 20 20 21 21 20 19 18 17 13 11 11 13 15 16 18 16 15 16 18 20 21 21 20 19 21 22 22 23 27 29 31 34 36 37 37 39 41
29 27 25 23 21 20 20 21 22 23 21 20 18 19 16 13 13 13 14 15 13 10 10 10 11 13 14 15 17 17 17 19 21 22 22 23 29 30 32 34 36 37 38 39 40
31 28 26 23 22 22 21 23 21 19 18 15 14 12 12 11 8 6 6 7 7 9 10 11 12 14 14 15 17 19 20 22 24 26 27 25 23 30 30 33 37 37 38 39 37
31 28 25 24 23 22 20 17 15 12 10 9 9 9 8 7 7 7 8 7 9 11 12 14 16 18 19 20 21 22 23 25 26 28 31 31 20 29 32 34 35 35 34 37 39
30 27 25 21 18 16 15 15 13 11 9 7 7 7 6 5 5 6 8 9 11 13 14 16 17 18 21 21 22 24 25 27 29 30 31 34 26 30 36 34 32 33 37 40 46
27 23 19 18 18 16 13 12 13 10 10 9 8 8 7 7 7 7 7 8 10 12 16 18 20 22 26 26 27 27 28 29 30 33 31 37 33 31 35 35 36 40 42 45 47
24 20 17 17 16 16 14 13 13 11 11 11 11 10 9 8 7 7 8 8 13 17 20 24 26 27 28 29 29 30 33 33 36 38 42 33 36 30 34 37 38 42 45 48 52
24 21 19 16 16 15 14 14 13 12 12 12 12 10 8 7 8 10 11 16 19 23 26 30 32 32 33 32 32 31 33 36 39 40 42 36 35 38 37 39 43 44 48 52 55
24 22 18 15 13 14 14 14 13 12 12 12 11 10 9 10 13 15 19 21 23 27 32 35 39 40 35 38 35 30 31 34 37 38 39 39 39 40 42 46 48 51 54 56 59
23 21 18 15 14 14 15 14 13 13 13 12 12 13 13 15 17 20 23 25 27 29 35 38 44 46 42 40 39 31 30 36 37 35 38 40 40 43 46 50 52 54 57 59 65

GFSSW_500_spd_024.txt.gz
Wind_Speed
16 18 22 25 21 20 23 19 23 26 22 19 16 14 12 11 10 9 10 12 12 11 11 14 13 14 16 14 13 11 7 6 9 10 9 17 16 12 11 12 12 10 10 9 8
20 17 26 24 23 22 26 24 27 23 17 15 15 12 13 13 12 12 12 13 15 18 21 19 18 16 15 13 11 10 8 10 14 18 17 13 13 13 12 11 10 9 10 8 6
10 16 26 25 22 23 26 26 22 18 17 16 18 20 18 17 15 15 18 19 22 24 23 18 17 17 14 10 11 13 13 17 17 17 14 14 13 11 10 9 8 6 5 5 5
9 11 19 27 22 21 22 20 20 20 22 24 24 22 21 19 20 22 24 26 24 23 25 22 17 14 12 11 13 15 19 17 15 13 10 11 10 9 7 6 5 2 1 1 2
15 16 19 21 17 18 21 27 24 28 32 32 30 29 27 25 23 20 18 18 19 20 19 17 14 14 13 15 17 15 13 14 13 12 10 8 7 5 4 5 4 4 5 6 6
19 20 21 21 20 23 27 22 33 37 36 34 31 29 28 27 25 25 24 22 23 22 22 19 17 15 14 14 14 13 14 12 11 12 10 8 6 5 3 4 4 5 7 9 9
20 21 20 25 24 23 30 38 39 37 33 31 29 28 27 25 22 21 20 18 18 17 15 13 13 13 11 11 10 10 9 8 9 10 10 7 5 5 8 9 7 6 8 10 12
21 18 25 25 25 37 42 40 37 34 32 30 27 27 25 23 21 19 17 15 14 14 13 11 10 9 9 8 7 5 4 7 10 10 8 6 5 6 9 9 10 12 12 13 14
20 19 24 33 43 44 41 38 35 33 30 28 26 24 22 19 18 15 14 12 12 11 9 8 7 6 5 3 2 4 3 2 3 4 5 5 5 7 11 12 11 12 14 14 15
24 30 39 46 45 42 38 35 33 30 28 26 23 21 19 17 16 14 12 12 13 11 9 8 7 6 5 5 5 3 2 3 5 7 8 10 7 9 10 11 14 15 15 14 15
37 44 46 44 41 38 35 33 30 29 26 23 22 18 16 14 12 10 8 7 7 8 8 7 6 6 6 5 4 2 3 4 6 9 12 12 13 13 16 16 15 15 14 15 16
44 44 43 41 37 34 33 30 28 25 25 24 21 17 14 11 9 6 4 3 3 4 4 5 6 7 7 4 3 3 5 7 7 8 11 11 14 15 16 16 17 18 17 18 20
42 40 39 36 34 33 31 29 26 24 20 19 15 12 9 6 5 5 2 3 5 4 4 6 8 8 7 6 6 7 9 10 11 12 14 16 18 18 17 18 19 19 18 19 22
39 36 35 33 32 30 28 26 23 20 16 12 8 5 3 1 2 3 5 3 5 7 8 9 9 9 9 10 11 12 12 13 13 15 16 16 21 18 18 19 20 18 20 23 27
37 35 34 32 31 29 27 22 18 15 12 7 4 3 4 6 9 10 10 9 8 9 10 10 11 12 13 14 15 16 16 16 17 17 18 17 18 18 20 21 22 23 26 30 33
35 34 33 31 28 26 22 17 13 10 6 3 4 6 7 10 12 13 13 12 11 12 12 12 13 14 16 17 18 18 19 20 22 22 20 18 20 22 22 24 26 28 32 34 35
35 33 31 28 25 21 17 13 11 9 6 8 10 11 13 14 14 14 13 12 11 11 12 14 17 19 20 20 21 21 20 21 21 22 22 20 22 24 23 27 30 33 35 36 35
33 31 29 26 23 20 17 13 12 11 13 14 16 16 16 15 14 10 9 8 9 11 13 13 11 11 12 14 15 17 17 18 19 20 22 22 25 24 27 29 32 34 36 37 38
32 29 27 24 22 19 17 16 15 15 17 19 18 16 14 12 10 10 9 8 7 5 5 6 7 8 9 11 13 14 15 17 18 19 21 23 25 27 28 31 31 33 36 38 39
31 29 26 23 21 20 18 17 18 18 19 17 15 12 10 9 8 5 3 3 3 3 5 7 8 11 13 14 16 17 18 20 20 23 23 24 26 28 29 32 34 35 36 39 37
32 29 26 24 23 21 20 19 19 16 12 10 9 8 8 6 4 4 4 3 4 5 7 10 12 14 16 17 19 20 22 23 25 26 28 28 25 28 33 36 37 38 34 36 38
33 30 28 25 23 22 20 19 14 12 11 10 7 6 6 5 3 2 3 4 4 5 7 10 14 17 20 23 24 25 26 28 29 32 33 33 28 30 37 40 38 35 34 38 41
33 31 28 26 23 21 17 14 13 13 13 11 9 7 6 5 5 5 5 4 3 5 10 13 18 23 24 24 26 27 29 29 32 35 35 38 33 37 41 40 36 35 38 40 46
34 31 28 24 20 19 18 14 13 14 13 12 11 9 8 7 7 7 6 6 7 10 13 17 24 24 28 30 31 31 31 32 34 34 37 32 39 31 40 38 38 40 42 45 51
34 30 26 21 19 19 18 17 17 16 15 13 12 10 9 8 8 9 9 10 13 16 18 21 26 27 32 35 33 32 34 37 37 35 38 33 33 36 34 35 37 41 43 48 52
32 29 26 22 20 19 19 19 19 17 15 14 12 10 10 10 10 11 12 13 17 20 23 26 30 33 34 38 37 33 35 36 37 36 38 38 35 35 36 39 39 44 48 53 57
31 29 26 23 20 19 19 19 18 16 15 13 12 11 11 12 13 15 15 16 19 22 26 30 36 41 40 44 42 38 36 34 33 33 35 35 36 36 39 41 43 50 54 59 63

GFSSW_500_spd_027.txt.gz
Wind_Speed
23 21 17 18 27 29 20 23 20 21 21 25 22 19 16 16 16 16 15 13 10 12 12 11 12 13 14 12 12 10 10 10 9 8 8 8 12 11 9 13 12 11 10 10 10
20 21 19 18 25 26 21 22 19 23 25 21 17 14 16 17 16 15 12 11 12 12 14 14 14 14 12 11 11 16 9 12 14 11 15 15 14 12 13 13 13 12 10 9 7
16 20 22 24 24 21 19 24 23 22 19 16 14 18 19 17 15 14 16 16 18 19 18 17 19 17 15 12 13 16 14 16 19 21 17 14 13 12 11 10 11 10 9 6 4
16 16 19 23 23 23 22 23 19 15 13 17 20 21 20 18 18 17 19 23 24 21 20 20 18 15 10 11 17 16 20 21 20 16 13 12 10 9 7 6 4 4 2 1 2
18 17 19 20 24 22 18 17 16 15 17 23 23 21 20 18 21 20 18 24 23 21 21 17 13 10 10 15 19 18 19 16 14 12 11 10 10 8 8 7 5 5 5 6 7
17 13 18 27 23 15 16 20 14 18 25 27 27 25 23 24 18 16 15 15 16 18 15 18 20 19 18 16 14 12 11 9 8 8 9 9 7 5 5 5 5 5 8 10 9
16 16 19 22 20 20 25 24 24 32 34 34 33 33 31 31 26 25 24 23 23 24 23 19 18 17 14 11 8 7 7 6 6 8 8 5 5 6 7 8 7 8 8 9 9
19 19 21 26 23 29 27 30 40 39 37 35 32 31 30 27 24 23 21 20 17 15 15 14 14 13 12 10 9 7 4 3 6 9 7 4 6 9 12 11 6 9 10 11 15
22 23 28 30 31 28 38 42 40 38 36 33 32 30 29 25 23 21 19 17 16 14 12 12 11 10 10 8 6 4 2 6 6 9 9 7 10 12 14 13 12 14 14 16 18
17 27 29 29 34 42 43 41 38 36 34 32 29 27 23 21 20 18 17 15 14 11 10 9 9 8 6 5 1 10 7 6 8 7 7 8 11 11 13 13 14 16 17 17 19
25 28 34 44 45 43 41 38 35 33 30 27 24 21 21 18 15 12 11 10 10 9 8 7 8 8 8 6 7 8 7 8 9 10 11 12 16 15 17 19 20 19 19 20 20
33 41 46 45 42 40 39 36 34 29 27 25 23 20 17 15 12 10 8 8 8 8 8 8 10 10 11 10 10 9 8 9 9 9 12 13 16 17 18 20 20 22 23 22 22
45 45 44 41 39 37 35 31 29 26 25 23 20 17 14 11 9 8 5 4 7 8 9 10 10 10 9 10 10 11 11 10 12 12 13 15 22 22 22 23 23 23 23 24 23
46 44 41 39 37 35 33 31 29 27 23 18 16 12 9 7 4 2 2 0 3 6 7 8 9 10 11 12 12 15 13 14 14 14 12 12 10 27 22 23 24 24 24 25 26
44 42 38 36 35 33 31 28 25 22 19 14 10 7 3 0 2 3 4 5 5 7 9 9 11 12 13 15 16 18 17 17 18 19 19 19 16 31 27 25 25 25 26 27 29
41 38 36 35 33 31 28 24 20 17 11 8 5 2 2 5 7 8 9 9 9 10 11 12 13 14 15 17 18 19 20 20 21 21 22 18 17 22 32 26 27 27 29 32 35
38 36 34 33 31 29 25 21 16 11 6 5 3 4 7 10 11 11 11 10 10 11 12 13 14 16 17 18 18 19 20 19 21 21 15 20 18 29 32 29 30 31 33 37 40
36 34 33 32 30 26 21 17 12 7 6 6 9 11 12 12 12 11 8 8 8 9 10 12 10 10 10 9 10 10 12 12 14 17 14 23 21 30 25 29 32 34 36 39 39
36 35 34 32 29 24 20 16 12 10 11 12 14 15 13 11 10 9 10 10 9 9 7 6 6 7 9 10 12 14 15 16 18 19 21 20 29 30 31 32 33 35 37 38 40
37 35 34 30 27 23 20 15 15 14 15 15 15 12 10 8 8 7 5 5 5 4 4 4 6 8 11 13 13 17 18 20 21 24 25 13 21 24 35 33 34 36 36 41 42
37 34 31 28 25 22 20 18 17 17 16 14 11 8 7 7 6 5 6 6 5 3 2 4 6 9 12 14 17 19 20 21 23 27 29 30 23 35 37 40 40 41 40 41 41
35 33 30 28 25 22 21 19 18 17 15 11 8 6 6 7 5 4 5 4 3 1 1 4 7 13 15 16 18 19 22 23 25 27 32 31 29 36 37 40 40 41 40 38 39
37 33 31 28 25 23 22 21 19 16 14 12 10 8 6 6 6 6 5 4 4 3 4 6 11 16 20 20 24 26 29 29 29 29 27 32 28 36 36 37 38 39 35 39 44
37 35 32 28 25 24 23 21 17 16 14 13 12 9 9 8 9 8 7 6 7 7 9 12 15 19 22 26 30 33 35 39 38 36 35 27 32 26 30 38 38 37 40 40 42
38 35 31 28 27 24 22 20 19 16 15 15 13 12 11 11 11 10 9 9 9 11 13 14 18 21 25 29 33 38 42 43 41 38 38 29 28 29 33 32 34 37 39 41 46
38 35 32 28 26 24 21 20 20 18 18 17 16 15 14 14 13 12 11 10 11 13 17 19 22 26 28 33 38 43 44 42 38 36 33 33 30 28 27 29 29 34 41 44 50
38 35 32 29 26 25 22 21 21 20 20 19 17 16 15 14 13 13 13 13 14 17 20 24 28 30 32 38 42 46 41 38 34 35 36 32 30 30 32 35 37 42 46 52 58